Flag for Brazil

Past Weather in São José dos Campos, São Paulo, Brazil — Yesterday and Last 2 Weeks

Now
52 °F

Passing clouds.


Feels Like: 52 °F
Forecast: 69 / 51 °F
Wind: 2 mph from Southeast

Location: Sao Jose Dos Campo

Current Time: Jul 3, 2020 at 7:09:50 am

Latest Report: Jul 3, 2020 at 6:00 am


Visibility: 4 mi

Pressure: 30.07 "Hg (28.02 "Hg at 587m altitude)

Humidity: 94%

Dew Point: 50 °F

Location of São José dos CamposLocation

Past Weather in São José dos Campos — Graph

°F

São José dos Campos Temperature Yesterday

Maximum temperature yesterday: 70 °F (at 3:00 pm)
Minimum temperature yesterday: 48 °F (at 6:00 am)
Average temperature yesterday: 59 °F

High & Low Weather Summary for the Past Weeks

 TemperatureHumidityPressure
High84 °F (Jun 21, 2:00 pm)94% (Jun 19, 7:00 am)30.30 "Hg (Jun 19, 7:00 am)
Low48 °F (Jul 2, 6:00 am)26% (Jun 22, 2:00 pm)29.80 "Hg (Jul 1, 6:00 am)
Average66 °F66%30.10 "Hg
* Reported Jun 18 6:00 am — Jul 3 6:00 am, São José dos Campos. Weather by CustomWeather, © 2020

Note: Actual official high and low records may vary slightly from our data, if they occured in-between our weather recording intervals... More about our weather records

São José dos Campos Weather History for the Previous 24 Hours

Scroll right to see more
 ConditionsComfort  
Time TempWeatherWind HumidityBarometerVisibility
6:00 am
Fri, Jul 3
52 °FPassing clouds.2 mph94%30.07 "Hg4 mi
12:00 am54 °FPassing clouds.5 mph88%30.09 "HgN/A
11:00 pm
Thu, Jul 2
52 °FClear.2 mph88%30.09 "Hg10 mi
10:00 pm54 °FClear.3 mph82%30.09 "Hg10 mi
9:00 pm55 °FClear.5 mph82%30.07 "Hg10 mi
8:00 pm55 °FClear.7 mph88%30.07 "Hg10 mi
7:00 pm57 °FClear.6 mph72%30.04 "Hg10 mi
6:00 pm61 °FClear.5 mph55%30.01 "Hg10 mi
5:00 pm70 °FSunny.No wind35%29.98 "Hg10 mi
4:00 pm70 °FSunny.5 mph33%29.98 "Hg10 mi
3:00 pm70 °FSunny.3 mph38%29.98 "Hg10 mi
2:00 pm68 °FSunny.6 mph43%30.01 "Hg10 mi
1:00 pm66 °FPassing clouds.7 mph46%30.04 "HgN/A
12:00 pm64 °FPassing clouds.3 mph56%30.07 "HgN/A
11:00 am61 °FScattered clouds.3 mph72%30.09 "HgN/A
10:00 am55 °FScattered clouds.3 mph94%30.09 "Hg6 mi
9:00 am52 °FFog.3 mph94%30.09 "Hg1 mi
8:00 am50 °FFog.1 mph94%30.07 "Hg0 mi
7:00 am48 °FFog.2 mph94%30.07 "Hg0 mi
Weather by CustomWeather, © 2020

See weather overview